Regional Weather Roundup
Issued by NWS Wakefield, VA

Home | Current Version | Previous Version | Graphics & Text | Print | Product List | Glossary On
Versions: 1 2 3 4 5 6 7 8 9 10 11 12 13 14 15 16 17 18 19 20 21 22 23 24 25 26 27 28
000
ASUS41 KAKQ 201110
RWRAKQ

REGIONAL WEATHER ROUNDUP
NATIONAL WEATHER SERVICE WAKEFIELD VA
700 AM EDT SUN APR 20 2014

Note: "fair" indicates few or no clouds below 12,000 feet with no
significant weather and/or obstructions to visibility. * = Denotes
station may not report precipitation (e.g., rain,snow,etc.),
thunder or fog.

VAZ042-051-052>054-056-201200-
NORTHERN VIRGINIA

CITY           SKY/WX    TMP DP  RH WIND       PRES   REMARKS
WASH NATIONAL  CLOUDY    51  32  48 N14       30.36R
DULLES         CLOUDY    45  29  53 N6        30.36R
FORT BELVOIR   CLOUDY    46  36  68 NW2       30.36R
QUANTICO       CLOUDY    50  37  61 NE9       30.36R
FREDERICKSBRG* CLOUDY    45  39  81 CALM      30.33R
STAFFORD*      CLOUDY    46  37  73 CALM      30.38R
WARRENTON      CLOUDY    46  36  68 N5        30.35R
CULPEPER*      CLOUDY    45  32  61 CALM      30.35R
MANASSAS*      CLOUDY    45  34  65 N8        30.35R
LEESBURG*      CLOUDY    46  32  57 N7        30.38R
WINCHESTER     MOCLDY    45  27  49 CALM      30.37R
$$

VAZ048-049-060>072-079>083-201200-
CENTRAL AND SOUTH CENTRAL VIRGINIA...AND NORTH CENTRAL NORTH CAROLINA

CITY           SKY/WX    TMP DP  RH WIND       PRES   REMARKS
RICHMOND       MOCLDY    49  33  54 NE8       30.29R
CHESTERFIELD*  NOT AVBL
HANOVER        CLOUDY    46  36  68 N3        30.32R
TAPPAHANNOCK*  CLOUDY    50  34  54 N6        30.32R
CHARLOTTSVILLE CLOUDY    46  29  51 NE5       30.33R
ORANGE*        CLOUDY    45  32  61 NW6       30.35R
LOUISA*        CLOUDY    45  36  70 N6        30.31R
FARMVILLE*     MOCLDY    45  36  70 N6        30.28R
SOUTH HILL*    MOCLDY    48  34  57 N12       30.29S
ROANOKE RAPIDS PTSUNNY   50  36  57 NE13      30.21S
RALEIGH        MOCLDY    49  33  54 NE9       30.20S
$$

VAZ088>098-201200-
SOUTHEAST VIRGINIA

CITY           SKY/WX    TMP DP  RH WIND       PRES   REMARKS
NORFOLK        MOCLDY    51  40  65 NE25G31   30.22R
VIRGINIA BEACH MOCLDY    51  40  65 NE24G33   30.21R
NORFOLK NAVAL  CLOUDY    52  39  61 NE25      30.24S
WEST POINT*    CLOUDY    51  36  57 NE3       30.31R
NEWPORT NEWS   CLOUDY    54  38  54 NE16G25   30.25R
LANGLEY AFB    CLOUDY    51  41  69 NE16      30.25R
FORT EUSTIS    CLOUDY    52  40  64 NE10      30.23S
WILLIAMSBURG*  CLOUDY    48  41  76 NE6       30.27R
FRANKLIN*      MOCLDY    52  36  54 NE9       30.22R
WAKEFIELD      CLOUDY    49  37  63 NE7       30.25R
$$

VAZ020-022-025-037-045-201200-
WESTERN AND SOUTHWEST VIRGINIA

CITY           SKY/WX    TMP DP  RH WIND       PRES   REMARKS
STAUNTON*      CLOUDY    40  32  73 N3        30.35R
HOT SPRINGS VA CLOUDY    41  25  52 E13       30.33R
LYNCHBURG      MOCLDY    50  35  56 N7        30.30S
DANVILLE       MOCLDY    49  32  52 NE10      30.26R
MARTINSVILLE   MOCLDY    48  38  68 N3        30.29R
ROANOKE        CLOUDY    47  37  68 NE5       30.31S
BLACKSBURG     MOCLDY    46  39  76 NE5       30.30S
DUBLIN*        MOCLDY    39  37  95 CALM      30.30R
MARION*        PTCLDY    39  37  91 E5        30.30R
HILLSVILLE*    PTCLDY    43  34  70 NE5       30.30S
RICHLANDS*     SUNNY     52  36  56 E8        30.25S
WISE*          PTCLDY    46  34  61 CALM      30.27R
ABINGDON*      CLEAR     50  38  63 E3        30.26R
$$

MDZ021>025-VAZ099-100-201200-
SOUTHERN MARYLAND AND THE DELMARVA PENINSULA

CITY           SKY/WX    TMP DP  RH WIND       PRES   REMARKS
PATUXENT RIVER CLOUDY    47  36  65 E7        30.34R
BAY BRIDGE APT CLOUDY    50  32  50 NE8       30.36R
LEONARDTOWN    CLOUDY    48  36  61 NE7       30.35R
DOVER          CLOUDY    48  40  72 E18       30.33R
GEORGETOWN     CLOUDY    48  39  71 NE9       30.35R
EASTON         MOCLDY    48  37  66 NE12      30.38R
CAMBRIDGE      CLOUDY    46  36  66 CALM      30.34R
SALISBURY      CLOUDY    49  38  65 NE7       30.32R
OCEAN CITY     CLOUDY    49  41  74 NE16G22   30.32R
WALLOPS ISLAND CLOUDY    52  43  71 E21G30    30.30R
ACCOMACK*      CLOUDY    50  34  53 NE16      30.28R
$$

NCZ012>017-030>032-201200-
EASTERN NORTH CAROLINA

CITY           SKY/WX    TMP DP  RH WIND       PRES   REMARKS
ELIZABETH CITY CLOUDY    53  43  68 NE17G31   30.17R
AHOSKIE*       MOCLDY    51  34  52 N13G18    30.19S
EDENTON*       CLOUDY    52  42  68 NE12G17   30.16R
CURRITUCK*     CLOUDY    53  42  68 NE24G32   30.18R
KILL DEVIL HLS CLOUDY    51  47  86 N14G24    30.11R
MANTEO         CLOUDY    52  47  82 NE20G29   30.11R
CAPE HATTERAS  LGT RAIN  53  53 100 NE13G26   30.04S FOG
GOLDSBORO      CLOUDY    50  40  68 NE10G17   30.13R
WASHINGTON     CLOUDY    50  44  78 N12       30.14R
GREENVILLE     CLOUDY    50  39  66 N9        30.17R
NEW BERN       CLOUDY    52  46  80 N12       30.10R
WILMINGTON     CLOUDY    53  48  83 N14       30.07R
$$

VAZ048-201200-
ELSEWHERE

CITY           SKY/WX    TMP DP  RH WIND       PRES   REMARKS
HARRISBURG PA  MOCLDY    47  26  44 NE3       30.41R
BALTIMORE      CLOUDY    49  30  48 NE9       30.36R
ANNAPOLIS      CLOUDY    51  35  54 NE8       30.36R
ANDREWS AFB    CLOUDY    45  37  71 NE10      30.34R
WILMINGTON DE  CLOUDY    50  32  50 E21       30.41R
PHILADELPHIA   CLOUDY    48  34  58 E17       30.43R
WILDWOOD NJ*   CLOUDY    46  36  66 NE20G26   30.37R
ATLANTIC CITY  CLOUDY    46  33  60 NE15G28   30.39R
HENDERSON NC   MOCLDY    48  31  51 N8        30.23S
GREENSBORO     MOCLDY    49  36  61 NE8       30.23R
ROCKY MOUNT    CLOUDY    51  35  54 N15       30.17S
FAYETTEVILLE   CLOUDY    53  37  54 N15       30.13S
CHARLOTTE      MOCLDY    50  42  74 N9        30.21R
$$

VAZ100-201200-
MARINE

STATION/POSITION TIME  TEMP    WIND        PRES    WAVE   SWELL
                       AIR SEA DIR/SP/G            HT/PER HT/PER
                 (UTC) (F)     (DEG/KT/KT) (MB)    (FT/S) (FT/S)
44066 TX TWR #4  1100   45 44   60/ 19/ 23 1028.8R   5/ 9   3/ 9
CAPE MAY NJ      1100   48 53   70/ 11/ 17 1027.6R
LEWES DE         1100   49 49   70/ 22/ 26 1026.6R
15NM E FENWICK I 1100   48 46              1026.6R   4/ 9
OCEAN-CITY-INLET 1100   48 48   60/  6/ 13 1026.3R
WACHAPREAGUE VA  1100   49 51   40/ 18/ 22 1024.7R
THOMAS POINT MD  1100   52 53   50/ 17/ 20 1028.0R
GOOSES REEF MD   1100   52      80/ 16/ 19 1028.1R
COVE POINT MD    1100   49      80/ 10/ 12 1027.0R
SOLOMONS ISLAND  1100      51                N/A
BISHOPS HEAD MD  1100   49 54   40/  9/ 14 1026.4R
PINEY POINT MD   1100           70/  7/  9   N/A
POTOMAC MD       1100   50      50/ 14/ 16 1026.0R
CAMBRIDGE MD     1100   49 56   60/  8/ 12 1026.7R
LEWISETTA VA     1100   51 54   50/ 10/ 15 1026.3F
RAPPAHANNOCK LGT 1100           30/ 19/ 22 1025.3S
STINGRAY PT      1100   51      50/ 16/ 17 1025.3R
YORK RVR RNG VA  1100   52      40/ 19/ 22 1023.8R
YORKTOWN VA      1100   53 54   40/ 15/ 18 1024.4R
JAMESTOWN VA     1100   49      50/  6/ 10   N/A
DOMINION TERM VA 1100   52      30/  7/ 15 1023.5F
KIPTOPEKE VA     1100      51   60/ 11/ 18   N/A
CHES BAY BRIDGE  1100   51 51   20/ 23/ 30 1022.9R
CAPE HENRY VA    1100   50      30/ 25/ 29   N/A
CHESAPEAKE LGHT  1000   49      40/ 26/ 28 1022.6R
WILLOUBY STN VA  1100   52      30/ 22/ 24 1022.7S
S CRANEY ISL VA  1100          360/ 19/ 26 1023.2R
CAPE HENRY BUOY  1100      47                N/A     6/ 8
1ST LANDING BUOY 1100      45                N/A     5/ 9   3/ 9
64NM E OF VA BCH 1100   52 48   30/ 16/ 19 1020.4R   9/ 8   7/ 8
DUCK PIER NC     1100   51 49   30/ 27/ 31 1019.2S
44100 DUCK FRF   1100      48                N/A     8/ 8   2/11
44056 DUCK FRF   1100      48                N/A     7/10   2/11
OREGON INLET NC  1100   51 51   20/ 17/ 24 1018.7R
HATTERAS NC      1100   55 56   30/ 15/ 23 1017.1S
DIAMOND SHLS NC  1100   67 76   60/ 29/ 37 1014.7F  14/10
CAPE LOOKOUT NC  1000   57      20/ 27/ 34 1015.2F
FRYING PAN SHLS  1100   62 68   40/ 33/ 41 1013.3R  12/ 7
$$



USA.gov is the U.S. government's official web portal to all federal, state and local government web resources and services.